Hourly Weather Chacaltaya

Today, 19 June, Saturday

Time Temperature Precipitation Wind Pressure Humidity
00:00 -5°C° 0 mm 2 mps 415 mmHg 56%
01:00 -5°C° 0 mm 2 mps 415 mmHg 51%
02:00 -5°C° 0 mm 2 mps 415 mmHg 50%
03:00 -6°C° 0 mm 2 mps 415 mmHg 50%
04:00 -6°C° 0 mm 2 mps 414 mmHg 50%
05:00 -3°C° 0 mm 1 mps 415 mmHg 47%
06:00 -2°C° 0 mm 1 mps 417 mmHg 43%
07:00 -2°C° 0 mm 0 mps 418 mmHg 40%
08:00 +1°C° 0 mm 1 mps 419 mmHg 39%
09:00 +2°C° 0 mm 1 mps 420 mmHg 38%
10:00 +3°C° 0 mm 2 mps 421 mmHg 37%
11:00 +3°C° 0 mm 2 mps 421 mmHg 40%
12:00 +3°C° 0 mm 2 mps 421 mmHg 43%
13:00 +4°C° 0 mm 2 mps 420 mmHg 46%
14:00 +3°C° 0 mm 2 mps 420 mmHg 47%
15:00 +3°C° 0 mm 2 mps 420 mmHg 47%
16:00 +3°C° 0 mm 2 mps 419 mmHg 48%
17:00 +1°C° 0 mm 2 mps 418 mmHg 53%
18:00 0°C° 0 mm 1 mps 417 mmHg 58%
19:00 -1°C° 0 mm 1 mps 416 mmHg 64%
20:00 -2°C° 0 mm 1 mps 416 mmHg 65%
21:00 -2°C° 0 mm 1 mps 416 mmHg 66%
22:00 -2°C° 0 mm 1 mps 416 mmHg 66%
23:00 -3°C° 0 mm 1 mps 416 mmHg 65%

Tomorrow, 20 June, Sunday

Time Temperature Precipitation Wind Pressure Humidity
00:00 -3°C° 0 mm 1 mps 415 mmHg 64%
01:00 -4°C° 0 mm 0 mps 415 mmHg 63%
02:00 -3°C° 0 mm 1 mps 415 mmHg 61%
03:00 -4°C° 0 mm 1 mps 415 mmHg 59%
04:00 -4°C° 0 mm 1 mps 414 mmHg 58%
05:00 -3°C° 0 mm 1 mps 416 mmHg 51%
06:00 -2°C° 0 mm 1 mps 417 mmHg 44%
07:00 -1°C° 0 mm 1 mps 418 mmHg 38%
08:00 -1°C° 0 mm 2 mps 419 mmHg 36%
09:00 +2°C° 0 mm 2 mps 420 mmHg 35%
10:00 +3°C° 0 mm 2 mps 421 mmHg 34%
11:00 +3°C° 0 mm 3 mps 421 mmHg 36%
12:00 +4°C° 0 mm 3 mps 421 mmHg 38%
13:00 +4°C° 0 mm 4 mps 421 mmHg 40%
14:00 +4°C° 0 mm 4 mps 421 mmHg 40%
15:00 +3°C° 0 mm 4 mps 420 mmHg 41%
16:00 +3°C° 0 mm 4 mps 419 mmHg 42%
17:00 +1°C° 0 mm 3 mps 419 mmHg 45%
18:00 -1°C° 0 mm 2 mps 418 mmHg 49%
19:00 0°C° 0 mm 1 mps 417 mmHg 52%
20:00 0°C° 0 mm 1 mps 417 mmHg 54%
21:00 -3°C° 0 mm 2 mps 417 mmHg 55%
22:00 -3°C° 0 mm 2 mps 417 mmHg 56%
23:00 -3°C° 0 mm 2 mps 416 mmHg 55%

Day after tomorrow, 21 June, Monday

Time Temperature Precipitation Wind Pressure Humidity
00:00 -2°C° 0 mm 1 mps 416 mmHg 54%
01:00 -2°C° 0 mm 1 mps 415 mmHg 53%
02:00 -2°C° 0 mm 1 mps 415 mmHg 53%
03:00 -2°C° 0 mm 1 mps 415 mmHg 52%
04:00 -3°C° 0 mm 1 mps 415 mmHg 52%
05:00 -2°C° 0 mm 1 mps 416 mmHg 50%
06:00 -1°C° 0 mm 1 mps 417 mmHg 48%
07:00 0°C° 0 mm 1 mps 418 mmHg 46%
08:00 +2°C° 0 mm 1 mps 419 mmHg 43%
09:00 +3°C° 0 mm 2 mps 420 mmHg 41%
10:00 +4°C° 0 mm 2 mps 422 mmHg 38%
11:00 +5°C° 0 mm 2 mps 421 mmHg 40%
12:00 +5°C° 0 mm 2 mps 421 mmHg 42%
13:00 +5°C° 0 mm 2 mps 421 mmHg 44%
14:00 +5°C° 0.1 mm 2 mps 420 mmHg 47%
15:00 +4°C° 0.1 mm 2 mps 420 mmHg 49%
16:00 +4°C° 0.1 mm 2 mps 419 mmHg 52%
17:00 +2°C° 0 mm 2 mps 418 mmHg 60%
18:00 +1°C° 0 mm 2 mps 418 mmHg 67%
19:00 0°C° 0 mm 1 mps 417 mmHg 74%
20:00 -2°C° 0 mm 2 mps 417 mmHg 78%
21:00 -3°C° 0 mm 2 mps 417 mmHg 82%
22:00 -3°C° 0 mm 2 mps 417 mmHg 85%
23:00 -4°C° 0 mm 2 mps 416 mmHg 86%

22 June, Tuesday

Time Temperature Precipitation Wind Pressure Humidity
00:00 -4°C° 0 mm 2 mps 416 mmHg 87%
01:00 -2°C° 0 mm 1 mps 416 mmHg 88%
02:00 -2°C° 0 mm 1 mps 416 mmHg 88%
03:00 -3°C° 0 mm 1 mps 415 mmHg 88%
04:00 -3°C° 0 mm 1 mps 415 mmHg 88%
05:00 -2°C° 0 mm 1 mps 416 mmHg 85%
06:00 -2°C° 0 mm 1 mps 417 mmHg 82%
07:00 -1°C° 0 mm 1 mps 417 mmHg 80%
08:00 0°C° 0 mm 1 mps 418 mmHg 74%
09:00 +2°C° 0 mm 1 mps 419 mmHg 68%
10:00 +3°C° 0 mm 1 mps 420 mmHg 62%
11:00 +3°C° 0.2 mm 2 mps 420 mmHg 63%
12:00 +3°C° 0.2 mm 2 mps 420 mmHg 63%
13:00 +3°C° 0.2 mm 2 mps 420 mmHg 64%
14:00 +3°C° 0.2 mm 2 mps 419 mmHg 66%
15:00 +2°C° 0.2 mm 2 mps 419 mmHg 68%
16:00 +2°C° 0.2 mm 2 mps 418 mmHg 70%
17:00 +1°C° 0.1 mm 2 mps 418 mmHg 76%
18:00 -1°C° 0.1 mm 2 mps 417 mmHg 83%
19:00 -4°C° 0.1 mm 3 mps 416 mmHg 89%
20:00 -3°C° 0 mm 2 mps 416 mmHg 89%
21:00 -1°C° 0 mm 1 mps 416 mmHg 89%
22:00 -2°C° 0 mm 0 mps 416 mmHg 89%
23:00 -3°C° 0 mm 0 mps 416 mmHg 89%

23 June, Wednesday

Time Temperature Precipitation Wind Pressure Humidity
00:00 -2°C° 0 mm 1 mps 416 mmHg 90%
01:00 -2°C° 0 mm 1 mps 416 mmHg 90%
02:00 -2°C° 0 mm 1 mps 415 mmHg 89%
03:00 -2°C° 0 mm 1 mps 415 mmHg 88%
04:00 -2°C° 0 mm 1 mps 415 mmHg 87%
05:00 -2°C° 0 mm 1 mps 416 mmHg 83%
06:00 -1°C° 0 mm 1 mps 417 mmHg 79%
07:00 0°C° 0 mm 1 mps 417 mmHg 75%
08:00 +1°C° 0.1 mm 1 mps 418 mmHg 70%
09:00 +2°C° 0.1 mm 2 mps 419 mmHg 66%
10:00 +3°C° 0.1 mm 2 mps 420 mmHg 61%
11:00 +3°C° 0.4 mm 3 mps 420 mmHg 61%
12:00 +3°C° 0.4 mm 4 mps 420 mmHg 61%
13:00 +3°C° 0.4 mm 4 mps 420 mmHg 61%
14:00 +3°C° 0.6 mm 4 mps 419 mmHg 61%
15:00 +2°C° 0.6 mm 3 mps 419 mmHg 62%
16:00 +2°C° 0.6 mm 3 mps 418 mmHg 62%
17:00 +1°C° 0.7 mm 2 mps 418 mmHg 71%
18:00 +1°C° 0.7 mm 1 mps 417 mmHg 80%
19:00 0°C° 0.7 mm 1 mps 417 mmHg 89%
20:00 0°C° 0.4 mm 1 mps 417 mmHg 86%
21:00 0°C° 0.4 mm 1 mps 417 mmHg 84%
22:00 0°C° 0.4 mm 1 mps 417 mmHg 82%
23:00 -3°C° 0 mm 2 mps 417 mmHg 81%

24 June, Thursday

Time Temperature Precipitation Wind Pressure Humidity
00:00 -3°C° 0 mm 2 mps 416 mmHg 80%
01:00 -4°C° 0 mm 2 mps 416 mmHg 79%
02:00 -4°C° 0 mm 2 mps 415 mmHg 79%
03:00 -5°C° 0 mm 2 mps 415 mmHg 78%
04:00 -5°C° 0 mm 2 mps 415 mmHg 78%
05:00 -4°C° 0 mm 2 mps 415 mmHg 74%
06:00 -4°C° 0 mm 2 mps 416 mmHg 70%
07:00 -1°C° 0 mm 1 mps 417 mmHg 66%
08:00 +1°C° 0 mm 1 mps 418 mmHg 56%
09:00 +1°C° 0 mm 2 mps 419 mmHg 47%
10:00 +3°C° 0 mm 2 mps 421 mmHg 37%
11:00 +3°C° 0.1 mm 2 mps 420 mmHg 38%
12:00 +4°C° 0.1 mm 2 mps 420 mmHg 39%
13:00 +4°C° 0.1 mm 2 mps 420 mmHg 40%
14:00 +4°C° 0.1 mm 2 mps 420 mmHg 45%
15:00 +3°C° 0.1 mm 2 mps 419 mmHg 50%
16:00 +2°C° 0.1 mm 2 mps 418 mmHg 55%
17:00 +1°C° 0.1 mm 2 mps 418 mmHg 64%
18:00 -1°C° 0.1 mm 2 mps 417 mmHg 73%
19:00 -3°C° 0.1 mm 2 mps 417 mmHg 82%
20:00 -3°C° 0 mm 2 mps 417 mmHg 83%
21:00 -1°C° 0 mm 1 mps 417 mmHg 83%
22:00 -1°C° 0 mm 1 mps 417 mmHg 84%
23:00 -2°C° 0 mm 1 mps 416 mmHg 84%
Show more

We Need Your Consent

Meteoprog and our Service Providers may store and access personal data such as cookies, device identifiers or other similar technologies on your device and process such data to personalise content and ads, as well as provide social media features and to analyse the traffic.

  • Store and/or access information on your device

    Cookies, device identifiers or other information can be stored or accessed on your device for the purposes indicated above.

  • Personalised ads and content, ad and content measurement, audience insights, and products development

    Ads and content can be personalised based on a profile. More data can be added to better personalise ads and content. Ad and content performance can be measured. Insights about the audience who saw the ads and content can be derived. Such data can be used to develop or improve user’s experience, systems and software.

By clicking ‘I Agree’ you will allow the use of indicated cookies, device identifiers, web beacons or other similar technologies. Your settings can be changed in the browser on your device.

For certain purposes, legitimate interests may be relied on, rather than consent. You can read more about this in our Privacy and Cookie Policy.